Aeroporto :
LOGIN :

Iscrizione | Disclaimer

   EN    FR    IT 

 










Sommario :    VFR   VFR Marginale   IFR   IFR Intensivo   IFR Molto Intensivo
Visibilità : 
Base nubi : 
>= 8 km
>= 3000ft
5 / 8 km
1000 / 3000 ft
1500m / 5 km
500 / 1000 ft
800 / 1500m
200 / 500 ft
< 800m
< 200 ft
Simboli :   Temporali  Nebbia  Neve Forte  Precipitazioni Forti  Vento > 20 kt
SIGMETs :   Varie  Temporali  Ghiacco  Turbolenza  Onda orograficha  Ceneri Vulcaniche






- Altitudine del aeroporto : 29 ft


LIRM - Grazzanise Caserta

ULTIMO METAR :
  • 280755Z 15002KT CAVOK 22/04 Q1024 RMK SKC VIS MIN 9999 WIND THR06 13003KT BLU

METARs OBSOLETI :
  • 280655Z 09002KT CAVOK 19/06 Q1024 RMK SKC VIS MIN 9999 WIND THR06 09002KT BLU
  • 280555Z 03002KT CAVOK 14/08 Q1025 RMK SKC VIS MIN 9999 WIND THR06 01002KT BLU

TAF TAF LIRM
Valido dal 28 a 09 ore il 28 a 18 ore UTC


280800Z 2809/2818 VRB03KT CAVOK
BECMG 2810/2812 26015KT



MetMap, La meteo Aeronautica in un colpo d'occhio ! - Copyright ORBIFLY Dicembre 2007 - Disclaimer

ORBIFLY MET'MAP TEAM :

Programmazione e sviluppo : Alexandra Zaïnal
Concezione : Baudouin d'Aumeries
Aiuto per la programmazione : Marc-Olivier Méhu
Supporto tecnico e logistico : Manuel Goepfert
Aiuto per la traduzione : Arnaldo La Scala

Contatto : metmap@orbifly.com




FONTI E CREDITI :

   NOAA